Simultaneous Nadir Overpasses (SNOs) Predictions

Prediction of SNOs between NOAA-15 and METOP-C Satellite Orbit:

Table of predicted SNOs for the next 14.0 days since TLE Epoch: 4/21/2023
Index Date (NOAA-15) Time (NOAA-15) Lat,Lon (NOAA-15) SZA (NOAA-15 ) Date (METOP-C) Time (METOP-C) Lat,Lon (METOP-C) SZA (METOP-C ) Distance(km) Time Diff (sec)
1 04/25/2023 13:27:52 81.08, 16.55 69.89 04/25/2023 13:26:43 81.09, 16.67 69.88 2.26 69
2 04/25/2023 14:18:20 -81.08,-176.07 110.13 04/25/2023 14:17:22 -81.09,-175.98 110.14 1.82 58
3 04/25/2023 15:08:52 81.08, -8.67 69.87 04/25/2023 15:08:04 81.08, -8.83 69.84 2.76 48
4 04/25/2023 15:59:22 -81.09, 158.35 110.17 04/25/2023 15:58:44 -81.08, 158.52 110.18 3.26 38
5 04/25/2023 16:49:53 81.08, -33.89 69.85 04/25/2023 16:49:25 81.09, -33.95 69.84 1.87 28
6 04/25/2023 17:40:22 -81.08, 133.51 110.17 04/25/2023 17:40:05 -81.09, 133.40 110.17 2.51 17
7 04/25/2023 18:30:55 81.09, -59.47 69.80 04/25/2023 18:30:47 81.08, -59.45 69.80 0.93 8
8 04/25/2023 19:21:24 -81.09, 107.93 110.21 04/25/2023 19:21:27 -81.08, 107.90 110.22 0.77 3
9 04/25/2023 20:11:56 81.09, -84.69 69.79 04/25/2023 20:12:08 81.09, -84.57 69.80 2.02 12
10 04/25/2023 21:02:25 -81.09, 82.72 110.23 04/25/2023 21:02:48 -81.09, 82.78 110.21 1.14 23
11 04/25/2023 21:52:57 81.09,-109.90 69.77 04/25/2023 21:53:30 81.09,-110.07 69.76 2.85 33
12 04/25/2023 22:43:27 -81.10, 57.14 110.27 04/25/2023 22:44:10 -81.09, 57.28 110.25 3.00 43
13 04/25/2023 23:33:58 81.09,-135.12 69.75 04/25/2023 23:34:51 81.09,-135.19 69.77 1.55 53
14 04/26/2023 00:24:27 -81.08, 32.30 110.27 04/26/2023 00:25:31 -81.09, 32.16 110.25 2.70 64



Historial Predications of SNOs between NOAA-15 and METOP-C
